Aérodrome :
LOGIN :

S'inscrire | Disclaimer

   EN    FR    IT 

 










Légende :    VFR   VFR Marginal   IFR   IFR Intensif   IFR Très Intensif
Visi : 
Plafond : 
>= 8 km
>= 3000ft
5 à 8 km
1000 à 3000 ft
1500m à 5 km
500 à 1000 ft
800 à 1500m
200 à 500 ft
< 800m
< 200 ft
Symboles :   Orages  Brouillard  Fortes neiges  Fortes précipitations  Vent > 20 kt
SIGMETs :   Divers  Orages  Givrage  Turbulence  Onde Orograph.  Cendres Volcan.







- Altitude de l'aérodrome : 1822 ft


ETSL - Lechfeld AB

DERNIER METAR :
  • 160620Z 17006KT 9999 -RA FEW035 BKN060 BKN090 16/15 Q1016 BLU BLU TEMPO WHT

METARs EXPIRÉS :
  • 160520Z 30002KT 9999 -RA FEW035 BKN060 BKN080 15/15 Q1017 RERA BLU BLU TEMPO WHT
  • 160420Z 29005KT 8000 +RA SCT045 BKN060 BKN080 15/15 Q1016 BLU BLU TEMPO WHT
  • 160411Z 25008KT 9000 +RA SCT045 BKN060 BKN080 15/14 Q1016 BLU

TAF TAF ETSL
Valide du 16 à 05h jusqu'au 16 à 14h UTC


160415Z 1605/1614 VRB03KT 9999 NSW BKN080
TEMPO 1605/1608 25007KT 7000 RA SCT040 BKN070
PROB30 1612/1614 VRB15G30KT 3000 TSRA BKN030CB BY ETGL
Pas de NOTAMs connus pour ce terrain.



MET'MAP, la Météo Aéronautique d'un coup d'oeil ! - Copyright ORBIFLY Décembre 2007 - Disclaimer

ORBIFLY MET'MAP TEAM :

Programmation & Développement : Alexandra Zaïnal
Conception & Développement : Baudouin d'Aumeries
Co-Programmation & Développement : Marc-Olivier Méhu
Soutien technique & logistique : Manuel Goepfert

Contact : metmap@orbifly.com




SOURCES & CREDITS :

   NOAA